"Pseudo-MPEC" for P117RX4

Created 2020 Oct 18 7:07:21 UT using Find_Orb

Click here for an explanation of pseudo-MPECs

 
 Astrometry: 
     P117RX4  C2020 10 149AA/;oJjcNJ8?(fe3GAstrometryspbNpQLq?:l#-o'wXUHpu@RwF51
     P117RX4  C2020 10 14,rd-k[oH/@y58J/R//#$7redacted;U7lWaAw:s]f]j1r:Y[Z3KrF51
     P117RX4  C2020 10 14]Zclick%Ti41G%f^LCFm@:f#$n7Pbq2B^]nuqsO:baag'F9KFak`F51
     P117RX4  C2020 10 14'o@+=W\%(H!f_IVCEp_`1hWt9W[*hereqbS7HJI^)Q,^rk.4!+3KF51
     P117RX4  C2020 10 15jt\JbnD!K%_wB94j=]NGi4_;%m)Zx+B6gmx[7Saq9^9,L]#d1$SEF51
     P117RX4  C2020 10 15dH$W+8VGCR8dEjF]DaT]yGCK*F5oKB:5DrFO0Vw-/5qTYqk#Xy:WF51
     P117RX4  C2020 10 15F]]P^LE/o9x9eDCOU@\d/Trh%dF^=`odx,n6Yny(awu'uVP89n!GF51
     P117RX4 KC2020 10 16.48750304 59 50.20 -18 43 39.5    ~AGCM 23.03GVNEOCPV06
     P117RX4 KC2020 10 16.49787104 59 49.89 -18 43 43.7    ~AGCM 22.35GVNEOCPV06
     P117RX4 KC2020 10 16.50242604 59 49.78 -18 43 45.3    ~AGCM 22.49GVNEOCPV06
     P117RX4  C2020 10 16gDL+jdH*4f\tfor[rS)q[jHWqxO((huwiB3HI#gqbU^DOsq]BFkOF51
     P117RX4  C2020 10 16rC%%mu6explanationq@JsC'`;ioShEL_(([(*I/TOV)+ltIx4A^F51
     P117RX4  C2020 10 16qc)wHeY^?bdI4XK=hTH[/(Q]R)KpK/B4ls7WSuQo_eM36D!Em6.OF51
     P117RX4  C2020 10 16Bk'KRvLtemPQ[oj[5H%b$J/:X_\#@.tr^FIrn%HnV]G?S?AX[E]kF51

Station data:
(F51) Pan-STARRS 1, Haleakala  (N20.707235 W156.255910)  US/Hawaii.
   Observers N. Primak, A. Schultz, S. Watters, J. Thiel, T. Goggia. Measurer
   PS1 Science Consortium. 1.8-m Ritchey-Chrétien + CCD.
(V06) Catalina Sky Survey-Kuiper  (N32.416847 W110.732550)  US/Arizona.
   Observers T. A. Pruyne, B. M. Africano, E. J. Christensen, G. A. Farneth,
   D. C. Fuls, A. R. Gibbs, A. D. Grauer, H. Gröller, J. A. Johnson, R. A.
   Kowalski, S. M. Larson, G. J. Leonard, D. Rankin, R. L. Seaman, F. C.
   Shelly. 1.55-m reflector + CCD.

Orbital elements:  P117RX4
   Perihelion 2020 Feb 21.956231 +/- 41.5 TT = 22:56:58 (JD 2458901.456231)
Epoch 2020 Oct 16.0 TT = JDT 2459138.5   Earth MOID: 0.6435   AutoNEOCP
M  56.18570695 +/- 20               (J2000 ecliptic)
n   0.23702671 +/- 0.0377           Peri.  194.92343 +/- 7
a   2.58585704 +/- 0.274            Node   114.01795 +/- 3.0
e   0.3617330 +/- 0.0851            Incl.   30.89248 +/- 0.8
P   4.16                   H 18.4   G  0.15   U 10.6  
q 1.65046708 +/- 0.0444    Q 3.52124700 +/- 0.551
From 14 observations 2020 Oct. 14-16; mean residual 0".13
Residuals in arcseconds: 
201014 F51  .01+  .03-    201015 F51  .02+  .07-    201016 F51  .13+  .21+    
201014 F51  .08-  .03-    201015 F51  .06+  .10+    201016 F51  .17+  .13+    
201014 F51  .02-  .03+    201016 V06  .19-  .15+    201016 F51  .23+  .07-    
201014 F51  .07+  .02+    201016 V06  .29-  .12-    201016 F51  .04+  .30-    
201015 F51  .04+  .04-    201016 V06  .03+  .00     

Ephemerides (geocentric):
Date (UTC) HH   RA              Dec         delta   r     elong  mag " sig PA
---- -- -- --  -------------   -----------  ------ ------ -----  --- ---- ---
2020 10 18 07  04 58 57.690   -18 54 47.63  1.6938 2.3741 121.7 22.5 1.72 145
2020 10 18 08  04 58 56.398   -18 55 02.73  1.6937 2.3742 121.8 22.5 1.77 145
2020 10 18 09  04 58 55.102   -18 55 17.82  1.6936 2.3744 121.8 22.5 1.83 145
2020 10 18 10  04 58 53.804   -18 55 32.88  1.6934 2.3746 121.8 22.5 1.89 145
2020 10 18 11  04 58 52.501   -18 55 47.93  1.6933 2.3748 121.8 22.5 1.95 145
2020 10 18 12  04 58 51.196   -18 56 02.95  1.6932 2.3749 121.9 22.5 2.01 145
2020 10 18 13  04 58 49.887   -18 56 17.96  1.6930 2.3751 121.9 22.5 2.07 145
2020 10 18 14  04 58 48.574   -18 56 32.95  1.6929 2.3753 121.9 22.5 2.14 145
2020 10 18 15  04 58 47.258   -18 56 47.92  1.6928 2.3754 122.0 22.5 2.20 145
2020 10 18 16  04 58 45.939   -18 57 02.87  1.6926 2.3756 122.0 22.5 2.27 145
2020 10 18 17  04 58 44.616   -18 57 17.79  1.6925 2.3758 122.0 22.5 2.33 145
2020 10 18 18  04 58 43.289   -18 57 32.70  1.6924 2.3760 122.0 22.5 2.40 145
2020 10 18 19  04 58 41.960   -18 57 47.59  1.6922 2.3761 122.1 22.5 2.46 145
2020 10 18 20  04 58 40.627   -18 58 02.46  1.6921 2.3763 122.1 22.5 2.53 145
2020 10 18 21  04 58 39.290   -18 58 17.31  1.6920 2.3765 122.1 22.5 2.60 145
2020 10 18 22  04 58 37.950   -18 58 32.14  1.6919 2.3766 122.2 22.5 2.67 145
2020 10 18 23  04 58 36.606   -18 58 46.95  1.6917 2.3768 122.2 22.5 2.74 145
2020 10 19 00  04 58 35.259   -18 59 01.74  1.6916 2.3770 122.2 22.5 2.81 145
2020 10 19 01  04 58 33.909   -18 59 16.51  1.6915 2.3772 122.2 22.5 2.88 145
2020 10 19 02  04 58 32.555   -18 59 31.26  1.6913 2.3773 122.3 22.5 2.96 145
2020 10 19 03  04 58 31.198   -18 59 45.99  1.6912 2.3775 122.3 22.5 3.03 145
2020 10 19 04  04 58 29.837   -19 00 00.70  1.6911 2.3777 122.3 22.5 3.11 145
2020 10 19 05  04 58 28.473   -19 00 15.39  1.6909 2.3778 122.4 22.5 3.18 145
2020 10 19 06  04 58 27.106   -19 00 30.06  1.6908 2.3780 122.4 22.5 3.26 145
2020 10 19 07  04 58 25.735   -19 00 44.71  1.6907 2.3782 122.4 22.5 3.33 145
2020 10 19 08  04 58 24.361   -19 00 59.34  1.6906 2.3784 122.4 22.5 3.41 145
2020 10 19 09  04 58 22.983   -19 01 13.95  1.6904 2.3785 122.5 22.5 3.49 145
2020 10 19 10  04 58 21.602   -19 01 28.53  1.6903 2.3787 122.5 22.5 3.57 145
2020 10 19 11  04 58 20.217   -19 01 43.10  1.6902 2.3789 122.5 22.5 3.65 145
2020 10 19 12  04 58 18.829   -19 01 57.65  1.6901 2.3790 122.6 22.5 3.73 145
2020 10 19 13  04 58 17.438   -19 02 12.18  1.6899 2.3792 122.6 22.5 3.82 145
2020 10 19 14  04 58 16.043   -19 02 26.68  1.6898 2.3794 122.6 22.5 3.90 145
2020 10 19 15  04 58 14.645   -19 02 41.17  1.6897 2.3795 122.6 22.5 3.98 145
2020 10 19 16  04 58 13.244   -19 02 55.63  1.6895 2.3797 122.7 22.5 4.07 145
2020 10 19 17  04 58 11.839   -19 03 10.08  1.6894 2.3799 122.7 22.5 4.15 145
2020 10 19 18  04 58 10.430   -19 03 24.50  1.6893 2.3801 122.7 22.5 4.24 145
2020 10 19 19  04 58 09.018   -19 03 38.90  1.6892 2.3802 122.8 22.5 4.33 145
2020 10 19 20  04 58 07.603   -19 03 53.29  1.6890 2.3804 122.8 22.5 4.41 145
2020 10 19 21  04 58 06.185   -19 04 07.65  1.6889 2.3806 122.8 22.5 4.50 145
2020 10 19 22  04 58 04.763   -19 04 21.99  1.6888 2.3807 122.8 22.5 4.59 145
2020 10 19 23  04 58 03.337   -19 04 36.31  1.6887 2.3809 122.9 22.5 4.68 145
2020 10 20 00  04 58 01.909   -19 04 50.61  1.6885 2.3811 122.9 22.5 4.77 145
2020 10 20 01  04 58 00.477   -19 05 04.89  1.6884 2.3813 122.9 22.5 4.87 145
2020 10 20 02  04 57 59.041   -19 05 19.14  1.6883 2.3814 123.0 22.5 4.96 145
2020 10 20 03  04 57 57.602   -19 05 33.38  1.6882 2.3816 123.0 22.5 5.05 145
2020 10 20 04  04 57 56.160   -19 05 47.59  1.6880 2.3818 123.0 22.5 5.15 145
2020 10 20 05  04 57 54.714   -19 06 01.79  1.6879 2.3819 123.0 22.5 5.24 145
2020 10 20 06  04 57 53.265   -19 06 15.96  1.6878 2.3821 123.1 22.5 5.34 145